Milwaukee Timmerman, WI

5:48 AM CDT on May 29, 2017 (GMT -0500)
Timmerman

Weather History for KMWC - October, 2012

Change the Weather History Date:

Wednesday, October 10, 2012

  Actual Average Record
Temperature  
Mean Temperature 40 °F -  
Max Temperature 48 °F 60 °F 82 °F (1949)
Min Temperature 33 °F 42 °F 24 °F (1964)
Degree Days  
Heating Degree Days 24    
Moisture  
Dew Point 29 °F    
Average Humidity 72    
Maximum Humidity 93    
Minimum Humidity 30    
Precipitation  
Precipitation 0.00 in - - ()
Sea Level Pressure  
Sea Level Pressure 30.01 in    
Wind  
Wind Speed 8 mph (West)    
Max Wind Speed 21 mph    
Max Gust Speed 30 mph    
Visibility 10 miles    
Events      
Averages and records for this station are not official NWS values.
T = Trace of Precipitation, MM = Missing Value Source: NWS Daily Summary

Daily Weather History Graph

Daily Weather History Graph

Search for Another Location

Airport or City:

Trip Planner

Search our weather history database for the weather conditions in past years. The results will help you decide how hot, cold, wet, or windy it might be!

Date:

Astronomy

Oct. 10, 2012 Rise Set
Actual Time 7:00 AM CDT 6:16 PM CDT
Civil Twilight 6:31 AM CDT 6:45 PM CDT
Nautical Twilight 5:58 AM CDT 7:18 PM CDT
Astronomical Twilight 5:25 AM CDT 7:51 PM CDT
Moon 1:28 AM CDT (10/10) 3:26 PM CDT (10/10)
Length of Visible Light 12h 13m
Length of Day
11h 16m
Waning Crescent, 27% of the Moon is Illuminated
Oct 10
Waning Crescent
Oct 15
New
Oct 21
First Quarter
Oct 29
Full
Nov 6
Last Quarter

Hourly Weather History & Observations

Time (CDT) Temp. Windchill Dew Point Humidity Pressure Visibility Wind Dir Wind Speed Gust Speed Precip Events Conditions
12:15 AM 41.0 °F 36.4 °F 37.4 °F 87% 29.87 in 10.0 mi WSW 6.9 mph - N/A   Mostly Cloudy
12:35 AM 39.2 °F 34.2 °F 35.6 °F 87% 29.87 in 10.0 mi West 6.9 mph - N/A   Scattered Clouds
12:55 AM 37.4 °F 32.8 °F 35.6 °F 93% 29.88 in 10.0 mi WSW 5.8 mph - N/A   Clear
1:15 AM 37.4 °F 32.8 °F 35.6 °F 93% 29.88 in 10.0 mi WSW 5.8 mph - N/A   Clear
1:35 AM 37.4 °F 32.8 °F 35.6 °F 93% 29.88 in 10.0 mi WSW 5.8 mph - N/A   Clear
1:55 AM 37.4 °F 31.4 °F 33.8 °F 87% 29.89 in 10.0 mi West 8.1 mph - N/A   Clear
2:15 AM 37.4 °F 32.1 °F 33.8 °F 87% 29.90 in 10.0 mi West 6.9 mph - N/A   Clear
2:35 AM 37.4 °F 30.3 °F 33.8 °F 87% 29.90 in 10.0 mi West 10.4 mph - N/A   Clear
2:55 AM 37.4 °F 31.4 °F 33.8 °F 87% 29.90 in 10.0 mi West 8.1 mph - N/A   Clear
3:15 AM 37.4 °F 30.8 °F 33.8 °F 87% 29.90 in 10.0 mi West 9.2 mph - N/A   Clear
3:35 AM 35.6 °F 29.9 °F 32.0 °F 87% 29.91 in 10.0 mi West 6.9 mph - N/A   Clear
3:55 AM 35.6 °F 29.2 °F 32.0 °F 87% 29.91 in 10.0 mi West 8.1 mph - N/A   Clear
4:15 AM 35.6 °F 32.8 °F 32.0 °F 87% 29.91 in 10.0 mi West 3.5 mph - N/A   Clear
4:35 AM 35.6 °F 31.7 °F 32.0 °F 87% 29.91 in 10.0 mi West 4.6 mph - N/A   Clear
4:55 AM 35.6 °F 29.2 °F 32.0 °F 87% 29.92 in 10.0 mi West 8.1 mph - N/A   Clear
5:15 AM 35.6 °F 28.0 °F 32.0 °F 87% 29.93 in 10.0 mi West 10.4 mph - N/A   Clear
5:35 AM 35.6 °F 28.6 °F 32.0 °F 87% 29.94 in 10.0 mi West 9.2 mph - N/A   Clear
5:55 AM 35.6 °F 28.6 °F 32.0 °F 87% 29.95 in 10.0 mi West 9.2 mph - N/A   Clear
6:15 AM 33.8 °F 26.4 °F 32.0 °F 93% 29.95 in 10.0 mi West 9.2 mph - N/A   Scattered Clouds
6:35 AM 33.8 °F 26.4 °F 30.2 °F 87% 29.96 in 10.0 mi West 9.2 mph - N/A   Clear
6:45 AM 35.6 °F 28.0 °F 30.2 °F 81% 29.97 in 10.0 mi West 10.4 mph - N/A   Clear
6:55 AM 33.8 °F 25.8 °F 30.2 °F 87% 29.98 in 10.0 mi West 10.4 mph - N/A   Clear
7:45 AM 35.6 °F 27.5 °F 28.4 °F 75% 29.99 in 10.0 mi West 11.5 mph 17.3 mph N/A   Clear
8:45 AM 37.4 °F 29.3 °F 28.4 °F 70% 30.02 in 10.0 mi West 12.7 mph 19.6 mph N/A   Clear
9:45 AM 39.2 °F 31.2 °F 30.2 °F 70% 30.04 in 10.0 mi West 13.8 mph 23.0 mph N/A   Scattered Clouds
10:45 AM 42.8 °F 34.5 °F 26.6 °F 53% 30.06 in 10.0 mi WNW 18.4 mph 25.3 mph N/A   Scattered Clouds
11:45 AM 44.6 °F 36.4 °F 21.2 °F 39% 30.06 in 10.0 mi West 20.7 mph 29.9 mph N/A   Scattered Clouds
12:45 PM 44.6 °F 37.2 °F 21.2 °F 39% 30.06 in 10.0 mi WNW 17.3 mph 29.9 mph N/A   Scattered Clouds
1:45 PM 46.4 °F 39.5 °F 21.2 °F 37% 30.06 in 10.0 mi NW 17.3 mph 26.5 mph N/A   Mostly Cloudy
2:45 PM 44.6 °F 37.4 °F 19.4 °F 37% 30.08 in 10.0 mi WNW 16.1 mph 24.2 mph N/A   Mostly Cloudy
4:45 PM 48.2 °F - 17.6 °F 30% 30.08 in 10.0 mi West 11.5 mph 27.6 mph N/A   Scattered Clouds
5:45 PM 46.4 °F 41.9 °F 17.6 °F 32% 30.09 in 10.0 mi West 9.2 mph - N/A   Clear
6:45 PM 42.8 °F 39.3 °F 19.4 °F 39% 30.11 in 10.0 mi West 5.8 mph - N/A   Clear
7:45 PM 42.8 °F - 21.2 °F 42% 30.13 in 10.0 mi Calm Calm - N/A   Clear
8:45 PM 37.4 °F 33.8 °F 24.8 °F 60% 30.13 in 10.0 mi SSW 4.6 mph - N/A   Clear
9:15 PM 35.6 °F - 26.6 °F 70% 30.14 in 10.0 mi Calm Calm - N/A   Clear
9:35 PM 37.4 °F 34.9 °F 26.6 °F 65% 30.14 in 10.0 mi South 3.5 mph - N/A   Clear
9:55 PM 37.4 °F 34.9 °F 26.6 °F 65% 30.14 in 10.0 mi SSW 3.5 mph - N/A   Clear
10:15 PM 37.4 °F 33.8 °F 26.6 °F 65% 30.14 in 10.0 mi SSW 4.6 mph - N/A   Clear
10:35 PM 37.4 °F 33.8 °F 26.6 °F 65% 30.14 in 10.0 mi SSW 4.6 mph - N/A   Clear
10:55 PM 37.4 °F 34.9 °F 26.6 °F 65% 30.13 in 10.0 mi SSW 3.5 mph - N/A   Clear
11:15 PM 37.4 °F 34.9 °F 26.6 °F 65% 30.13 in 10.0 mi SW 3.5 mph - N/A   Clear
11:35 PM 35.6 °F 31.7 °F 26.6 °F 70% 30.13 in 10.0 mi SW 4.6 mph - N/A   Clear
11:55 PM 37.4 °F 34.9 °F 26.6 °F 65% 30.12 in 10.0 mi South 3.5 mph - N/A   Clear